Find Starlink 3343

NORAD ID: 50822 Int'l Des: 2022-001 Owner: SPXS Country: US Constellation: starlink operational
LEOCIRCULAR

当前视图

正在加载3D地球...

About Starlink 3343

Starlink 3343 (NORAD 50822) is a starlink constellation satellite (v1.5) launched Jan 6, 2022 by SPXS of US. It operates in LEO, CIRCULAR orbit with a mass of 297.00 kg.

关于 Starlink 3343

正在加载描述...

即将过境

Passes for default location (London). Set your location on the main map for personalized predictions.

高度历史

Loading altitude history...

两行轨道根数

1 50822U 22001V 26166.51355525 .00000242 00000-0 33319-4 0 9995
2 50822 53.1603 89.8899 0001424 81.8575 278.2578 15.08831416245178
Epoch: Jun 15, 2026 • Age: 9 hours

当前状态

高度 547.0 km
速度 7.59 km/s
星下点 -23.20°S, 64.72°E
发射日期 Jan 6, 2022
运行时间 4.4 years
类型 internet

技术详情

分类 Payload
质量 297.00 kg
干质量 275.00 kg
总质量 297.00 kg
长度 0.20 m
直径 2.80 m
跨度 9.00 m
形状 Box + pan
制造商 SPXS
平台类型 Starlink
阶段状态 In Orbit
所有者/国家 SPXS/US

Most Searched